Simultaneous Nadir Overpasses (SNOs) Predictions

Prediction of SNOs between METOP-A and NOAA-19 Satellite Orbit:

Table of predicted SNOs for the next 14.0 days since TLE Epoch: 1/18/2020
Index Date (METOP-A) Time (METOP-A) Lat,Lon (METOP-A) SZA (METOP-A ) Date (NOAA-19) Time (NOAA-19) Lat,Lon (NOAA-19) SZA (NOAA-19 ) Distance(km) Time Diff (sec)
1 01/22/2020 02:52:38 80.24, 150.06 100.16 01/22/2020 02:51:41 80.25, 150.19 100.17 2.82 57
2 01/22/2020 03:43:19 -80.25, -42.50 79.84 01/22/2020 03:42:37 -80.24, -42.38 79.85 2.35 42
3 01/22/2020 04:33:59 80.26, 124.90 100.16 01/22/2020 04:33:41 80.24, 124.91 100.14 1.99 18
4 01/22/2020 05:24:41 -80.24, -67.97 79.88 01/22/2020 05:24:38 -80.25, -67.98 79.87 1.14 3
5 01/22/2020 06:15:21 80.25, 99.43 100.13 01/22/2020 06:15:42 80.25, 99.30 100.13 2.44 21
6 01/22/2020 07:06:03 -80.23, -93.43 79.91 01/22/2020 07:06:38 -80.24, -93.26 79.89 3.35 35
7 01/22/2020 07:56:43 80.23, 73.97 100.10 01/22/2020 07:57:42 80.23, 74.03 100.11 1.15 59




NCC Satellite Simultaneous Nadir Overpasses (SNOs) Prediction Service
